Regional Weather Roundup
Issued by NWS

Home | Current Version | Previous Version | Text Only | Print | Product List | Glossary On
Versions: 1 2 3 4 5 6 7 8 9 10 11 12 13 14 15 16 17 18 19 20 21 22 23 24 25 26 27 28 29 30 31 32 33 34 35 36 37 38 39 40 41 42 43 44 45 46 47 48 49 50
000
ASUS43 KTOP 201059
RWRKS

WEATHER ROUNDUP FOR KANSAS
NATIONAL WEATHER SERVICE GOODLAND KS
600 AM CDT MON OCT 20 2014

NOTE:  "FAIR" INDICATES FEW OR NO CLOUDS BELOW 12,000 FEET WITH NO
SIGNIFICANT WEATHER AND/OR OBSTRUCTIONS TO VISIBILITY.

KSZ001>006-013>018-027>032-041>047-201200-
NORTHWEST KANSAS

CITY           SKY/WX    TMP DP  RH WIND       PRES   REMARKS
GOODLAND       CLEAR     39  36  89 W6        30.12F
HAYS           CLEAR     46  39  76 N5        30.05R
HILL CITY      CLEAR     42  40  92 W5        30.07R
RUSSELL        CLEAR     47  46  97 NW7       30.03R
$$

KSZ061>065-074>080-084>089-201200-
SOUTHWEST KANSAS

CITY           SKY/WX    TMP DP  RH WIND       PRES   REMARKS
DODGE CITY     FOG       49  47  93 N8        30.05R VSB 3/4
ELKHART          N/A     48  40  74 NW6         N/A
GARDEN CITY    CLEAR     47  45  93 N8        30.07R
GREAT BEND     CLOUDY    46  41  81 N3        30.04R VSB 1/4
LIBERAL        CLEAR     48  43  81 NW8       30.08R
$$

KSZ066>073-081>083-090>101-201200-
SOUTHEAST KANSAS

CITY           SKY/WX    TMP DP  RH WIND       PRES   REMARKS
CHANUTE        CLOUDY    58  54  86 S6        30.02S
COFFEYVILLE    CLOUDY    58  54  86 S7        30.03R
HUTCHINSON     FOG       49  47  93 CALM      30.02R VSB 1/4
NEWTON         CLEAR     55  48  76 S3        30.04R
PARSONS        CLOUDY    59  55  87 S5        30.04R
WICHITA INTL   PTCLDY    55  52  89 SE3       30.01S
WICHITA JABRA  CLEAR     54  53  97 CALM      30.02R FOG
WINFIELD       CLEAR     55  54  96 SE3       30.03R
$$

KSZ007>012-019>026-033>040-048>060-102>105-201200-
NORTHEAST KANSAS

CITY           SKY/WX    TMP DP  RH WIND       PRES   REMARKS
CONCORDIA      CLEAR     48  47  96 W7        30.03S
EMPORIA        CLEAR     52  52 100 CALM      30.02R
LAWRENCE       FOG       44  43  96 CALM      30.01R VSB 1/4
MANHATTAN      CLEAR     43  42  97 CALM      30.02S FOG
OLATHE IND     CLEAR     52  50  93 SW3       30.01S
OLATHE EXE     CLEAR     54  52  93 SW5       29.99S
SALINA         CLEAR     49  46  90 NW3       30.03R
TOPEKA BILLARD CLEAR     48  47  96 CALM      30.01S
TOPEKA FORBES  CLEAR     47  45  93 SW3       30.00S FOG
$$



USA.gov is the U.S. government's official web portal to all federal, state and local government web resources and services.